Tracking 19638 objects as of 20-May-2019
HD Live streaming from Space Station
objects crossing your sky now

IRIDIUM 113

Track IRIDIUM 113 now!
10-day predictions
IRIDIUM 113 is classified as:


NORAD ID: 42803
Int'l Code: 2017-039A
Perigee: 783.3 km
Apogee: 786.3 km
Inclination: 86.4 °
Period: 100.4 minutes
Semi major axis: 7155 km
RCS: Unknown
Launch date: June 25, 2017
Source: United States (US)
Launch site: AIR FORCE WESTERN TEST RANGE (AFWTR)
aabbcc
Your satellite tracking list
Your tracking list is empty




NASA's NSSDC Master Catalog

Two Line Element Set (TLE):
1 42803U 17039A   19140.52603594 -.00000004  00000-0 -83750-5 0  9990
2 42803  86.3944 322.1273 0002055 100.2003 259.9424 14.34217234100727
Source of the keplerian elements: AFSPC